CAPE
5 4 3 2 2 1 1 1 0 0 0 0 0 0 1 4 1 0 0 0 0 1787 1793 1164 606 782 660 689 382 170 2 0 6 114 224 491 442 394 318 192 112 147 58 75 122
6 4 2 3 2 2 1 0 0 0 0 0 0 0 1 3 0 0 0 0 10 1465 887 785 187 798 695 762 262 0 0 0 0 16 306 486 450 390 322 178 321 152 105 122 245
7 4 3 3 2 2 2 1 1 0 0 0 0 0 1 3 0 0 0 0 0 947 11 8 8 119 0 32 384 21 191 7 4 0 327 437 436 373 333 216 302 157 118 178 287
4 3 3 3 3 3 2 2 1 1 1 0 0 0 0 0 0 0 191 393 0 0 0 0 0 0 0 0 80 27 21 3 0 38 221 421 427 349 304 233 262 185 144 207 284
1 2 2 2 2 1 1 1 1 1 0 0 0 0 0 0 0 0 0 0 0 0 0 0 0 0 0 0 0 5 0 0 1 0 185 421 441 362 443 415 316 317 227 220 266
5 7 7 6 8 4 4 4 2 0 1 1 1 0 0 0 0 0 0 0 0 0 0 0 0 0 0 0 0 0 0 0 0 0 216 501 487 438 465 393 566 459 414 324 308
12 9 7 6 8 7 3 1 2 1 0 2 3 0 0 0 0 0 0 0 0 0 0 0 0 0 0 0 0 0 0 0 0 5 5 30 45 425 367 335 609 550 473 443 363
12 10 6 7 7 5 0 0 1 0 0 0 4 0 0 0 0 0 0 0 0 0 0 0 0 0 0 0 0 0 0 0 0 0 0 0 0 66 336 420 604 631 550 476 393
9 6 4 4 4 2 0 1 0 0 0 1 0 0 0 0 0 0 0 0 0 0 0 0 0 0 0 0 0 0 0 0 0 0 0 0 0 290 323 410 607 650 621 526 467
8 6 4 4 4 1 0 0 0 0 0 0 0 0 0 0 0 0 0 0 0 0 0 0 0 0 0 0 0 0 0 0 0 0 0 0 0 359 350 304 357 537 621 590 590
11 7 5 5 2 0 0 0 0 0 0 0 0 0 0 0 0 0 0 0 0 0 0 0 0 0 0 0 0 0 0 0 0 0 0 0 0 361 288 246 184 147 275 369 512
6 5 3 5 0 0 0 0 0 0 0 0 0 0 0 0 0 0 0 0 0 0 0 0 0 0 0 0 0 0 0 0 0 0 0 0 0 250 272 317 259 168 124 145 112
1 1 1 4 0 0 0 0 0 0 0 0 0 0 0 0 0 0 0 0 0 0 0 0 0 0 0 0 0 0 0 0 0 0 0 0 0 37 291 374 359 298 209 141 115
3 1 0 4 0 0 0 0 0 0 0 0 0 0 0 0 0 0 0 0 0 0 0 0 0 0 0 0 0 0 0 0 0 0 0 0 0 0 38 215 234 251 230 197 128
6 1 0 0 0 0 0 0 0 0 0 0 0 0 0 0 0 0 0 0 0 0 0 0 0 0 0 0 0 0 0 0 0 0 0 0 0 0 0 0 4 32 70 90 103
1 0 0 0 0 0 0 0 0 0 0 0 0 0 0 0 0 0 0 0 0 0 0 0 0 0 0 0 0 0 0 0 0 0 0 0 0 0 0 0 0 0 17 24 21
0 0 0 0 0 0 0 0 0 0 0 0 0 0 0 0 0 0 0 0 0 0 0 0 0 0 0 0 0 0 0 0 0 0 0 0 0 0 0 0 0 0 0 3 1
0 0 0 0 0 0 0 0 0 0 0 0 0 0 0 0 0 0 0 0 0 0 0 0 0 0 0 0 0 0 0 0 0 0 0 0 0 0 0 0 0 0 0 0 0
0 0 0 0 0 0 0 0 0 0 0 0 0 0 0 0 0 0 0 0 0 0 0 0 0 0 0 0 0 0 0 0 0 0 0 0 0 0 0 0 0 0 0 0 0
0 0 0 0 0 0 0 0 0 0 0 0 0 0 0 0 0 0 0 0 0 0 0 0 0 0 0 0 0 0 0 0 0 0 0 0 0 0 0 0 0 0 0 0 0
0 0 0 0 0 0 0 0 0 0 0 0 0 0 0 0 0 0 0 0 0 0 0 0 0 0 0 0 0 0 0 0 0 0 0 0 0 0 0 0 0 0 0 0 0
0 0 0 0 0 0 0 0 0 0 0 0 0 0 0 0 0 0 0 0 0 0 0 0 0 0 0 0 0 0 0 0 0 0 0 0 0 0 0 0 0 0 0 0 0
0 0 0 0 2 0 0 0 0 0 0 0 0 0 0 0 0 0 0 0 0 0 0 0 0 0 0 0 0 0 0 0 0 0 0 0 0 0 0 0 0 0 0 0 0
0 0 0 0 0 0 0 4 5 0 0 0 0 0 0 0 0 0 0 0 0 0 0 0 0 0 0 0 0 0 0 0 0 0 0 0 0 0 0 0 0 0 0 0 0
2 3 0 0 0 0 0 0 1 46 1 0 0 0 0 0 0 0 0 0 0 0 0 0 0 0 0 0 0 0 0 0 0 0 0 0 0 0 0 0 0 0 0 0 0
13 26 16 0 0 0 0 0 9 4 8 0 0 0 0 0 0 0 0 0 0 0 0 0 0 0 0 0 0 0 0 0 0 0 0 0 0 0 0 0 0 0 0 0 0
5 15 32 13 2 2 0 0 0 3 2 11 0 0 0 0 0 0 0 0 0 0 0 0 0 0 0 0 0 0 0 0 0 0 0 0 0 0 0 0 0 0 0 0 0
CIN
0 0 0 0 0 0 0 0 0 0 0 0 0 0 0 0 0 0 0 0 0 -115 -70 -96 -161 -143 -148 -148 -209 -244 -182 0 -105 -92 -93 -91 -111 -115 -141 -231 -253 -231 -297 -272 -229
0 0 0 0 0 0 0 0 0 0 0 0 0 0 0 0 0 0 0 0 -117 -122 -164 -167 -271 -125 -132 -130 -206 0 0 0 0 -55 -118 -113 -129 -169 -187 -221 -137 -246 -334 -270 -150
0 0 0 0 0 0 0 0 0 0 0 0 0 0 0 0 0 0 0 0 0 -208 -54 -51 -156 -251 0 -85 -218 -324 -173 -112 -131 0 -124 -123 -110 -139 -225 -236 -209 -301 -304 -256 -162
0 0 0 0 0 0 0 0 0 0 0 0 0 0 0 0 0 0 -398 -401 0 0 0 0 0 0 0 0 -232 -220 -259 -194 0 -132 -153 -134 -117 -151 -228 -191 -256 -305 -345 -277 -199
0 0 0 0 0 0 0 0 0 0 0 0 0 0 0 0 0 0 0 0 0 0 0 0 0 0 0 0 0 -127 0 0 -36 0 -88 -114 -134 -150 -209 -181 -243 -268 -270 -267 -232
0 0 0 0 0 0 0 0 0 0 0 0 0 0 0 0 0 0 0 0 0 0 0 0 0 0 0 0 0 0 0 0 0 0 -45 -88 -108 -114 -165 -193 -241 -286 -279 -254 -232
0 0 0 0 0 0 0 0 0 0 0 0 0 0 0 0 0 0 0 0 0 0 0 0 0 0 0 0 0 0 0 0 0 -78 -26 -60 -128 -111 -155 -213 -238 -288 -273 -227 -202
0 0 0 0 0 0 0 0 0 0 0 0 0 0 0 0 0 0 0 0 0 0 0 0 0 0 0 0 0 0 0 0 0 0 0 0 0 -127 -194 -209 -237 -265 -272 -218 -215
0 0 0 0 0 0 0 0 0 0 0 0 0 0 0 0 0 0 0 0 0 0 0 0 0 0 0 0 0 0 0 0 0 0 0 0 0 -176 -192 -201 -245 -262 -249 -220 -194
0 0 0 0 0 0 0 0 0 0 0 0 0 0 0 0 0 0 0 0 0 0 0 0 0 0 0 0 0 0 0 0 0 0 0 0 0 -200 -215 -227 -282 -285 -229 -198 -200
0 0 0 0 0 0 0 0 0 0 0 0 0 0 0 0 0 0 0 0 0 0 0 0 0 0 0 0 0 0 0 0 0 0 0 0 0 -217 -241 -247 -291 -283 -277 -230 -213
0 0 0 0 0 0 0 0 0 0 0 0 0 0 0 0 0 0 0 0 0 0 0 0 0 0 0 0 0 0 0 0 0 0 0 0 0 -178 -222 -317 -343 -328 -304 -269 -293
0 0 0 0 0 0 0 0 0 0 0 0 0 0 0 0 0 0 0 0 0 0 0 0 0 0 0 0 0 0 0 0 0 0 0 0 0 -244 -203 -226 -261 -272 -283 -274 -264
0 0 0 0 0 0 0 0 0 0 0 0 0 0 0 0 0 0 0 0 0 0 0 0 0 0 0 0 0 0 0 0 0 0 0 0 0 0 -88 -251 -277 -284 -294 -297 -284
0 0 0 0 0 0 0 0 0 0 0 0 0 0 0 0 0 0 0 0 0 0 0 0 0 0 0 0 0 0 0 0 0 0 0 0 0 0 0 0 -247 -341 -351 -328 -346
0 0 0 0 0 0 0 0 0 0 0 0 0 0 0 0 0 0 0 0 0 0 0 0 0 0 0 0 0 0 0 0 0 0 0 0 0 0 0 0 0 0 -406 -402 -384
0 0 0 0 0 0 0 0 0 0 0 0 0 0 0 0 0 0 0 0 0 0 0 0 0 0 0 0 0 0 0 0 0 0 0 0 0 0 0 0 0 0 0 -166 -55
0 0 0 0 0 0 0 0 0 0 0 0 0 0 0 0 0 0 0 0 0 0 0 0 0 0 0 0 0 0 0 0 0 0 0 0 0 0 0 0 0 0 0 0 0
0 0 0 0 0 0 0 0 0 0 0 0 0 0 0 0 0 0 0 0 0 0 0 0 0 0 0 0 0 0 0 0 0 0 0 0 0 0 0 0 0 0 0 0 0
0 0 0 0 0 0 0 0 0 0 0 0 0 0 0 0 0 0 0 0 0 0 0 0 0 0 0 0 0 0 0 0 0 0 0 0 0 0 0 0 0 0 0 0 0
0 0 0 0 0 0 0 0 0 0 0 0 0 0 0 0 0 0 0 0 0 0 0 0 0 0 0 0 0 0 0 0 0 0 0 0 0 0 0 0 0 0 0 0 0
0 0 0 0 0 0 0 0 0 0 0 0 0 0 0 0 0 0 0 0 0 0 0 0 0 0 0 0 0 0 0 0 0 0 0 0 0 0 0 0 0 0 0 0 0
0 0 0 0 0 0 0 0 0 -3 0 0 0 0 0 0 0 0 0 0 0 0 0 0 0 0 0 0 0 0 0 0 0 0 0 0 0 0 0 0 0 0 0 0 0
0 0 0 0 0 -5 0 0 0 0 0 0 0 0 0 0 0 0 0 0 0 0 0 0 0 0 0 0 0 0 0 0 0 0 0 0 0 0 0 0 0 0 0 0 0
-20 -4 0 0 0 0 0 0 0 -9 0 0 0 0 -1 0 0 0 0 0 0 0 0 0 0 0 0 0 0 0 0 0 0 0 0 0 0 0 0 0 0 0 0 0 0
-3 0 -2 0 -5 0 0 0 0 -1 0 0 0 0 0 0 0 0 0 0 0 0 0 0 0 0 0 0 0 0 0 0 0 0 0 0 0 0 0 0 0 0 0 0 0
-24 -15 0 0 0 -4 0 0 0 0 -1 0 0 0 0 0 0 0 0 0 0 0 0 0 0 0 0 0 0 0 0 0 0 0 0 0 0 0 0 0 0 0 0 0 0
Wind_Speed
21 21 21 21 21 21 21 20 19 19 19 18 18 19 18 17 17 2 9 14 11 22 18 13 11 10 12 3 4 2 1 4 6 10 5 11 7 10 3 13 3 5 9 17 21
21 21 21 21 22 22 21 21 21 20 19 19 18 19 17 16 4 9 20 15 19 23 17 17 12 18 5 8 5 5 4 7 5 9 16 16 15 15 6 13 1 9 15 21 21
22 22 22 23 23 23 22 22 22 22 20 18 18 17 15 10 5 10 1 19 21 23 14 15 15 13 5 4 7 5 8 4 5 7 19 22 13 7 16 10 7 21 23 23 20
23 23 24 24 24 24 23 23 23 22 21 19 17 16 14 2 7 1 5 10 25 19 13 10 10 8 8 10 8 5 14 13 5 5 18 19 14 5 18 10 17 24 28 26 22
24 24 24 25 25 26 25 24 23 22 22 19 15 12 4 3 14 8 12 16 18 14 14 9 8 7 7 6 6 9 20 7 4 4 17 16 19 13 21 8 17 20 23 23 21
24 24 25 26 26 27 26 25 24 23 21 19 13 6 2 10 6 9 4 16 11 12 8 8 9 9 5 6 9 6 16 17 9 11 19 14 13 10 16 19 20 23 24 22 22
23 25 26 27 28 29 30 28 27 28 24 18 11 6 3 20 4 4 7 7 11 7 8 8 7 10 7 4 6 7 8 6 8 6 12 14 10 19 15 22 22 24 22 22 21
23 25 26 27 28 29 31 31 29 30 21 7 14 7 11 7 6 16 10 4 5 5 4 8 9 6 4 3 6 3 2 2 8 8 7 17 20 16 22 24 22 21 21 21 22
25 26 27 28 29 30 32 34 29 10 7 18 9 4 12 4 3 9 9 9 8 5 3 5 7 7 3 4 4 4 4 6 9 9 6 10 5 12 22 22 22 21 21 20 19
24 25 27 29 30 32 35 28 8 1 8 7 3 1 5 5 4 5 7 9 5 7 3 6 5 5 3 5 8 6 4 5 6 4 8 7 6 19 21 22 23 22 21 20 20
24 26 27 30 32 33 18 6 6 3 2 8 6 6 7 6 5 4 5 9 4 6 8 6 5 12 11 6 6 4 3 5 3 1 2 4 7 21 22 18 21 20 20 21 23
25 26 27 29 33 29 4 5 7 2 16 16 24 22 26 5 6 6 11 9 8 9 6 3 15 9 9 9 10 6 7 14 3 7 4 6 10 19 24 27 28 25 22 22 20
25 26 26 28 34 4 5 3 4 4 6 9 10 10 8 20 14 16 10 7 6 9 9 13 6 10 9 7 8 7 11 11 9 2 3 5 2 12 20 12 13 18 21 21 22
26 27 27 30 6 8 6 6 8 3 4 10 6 9 6 8 10 16 11 12 5 18 7 7 9 9 7 8 9 9 7 7 5 4 4 6 5 7 17 18 16 16 18 20 21
24 26 27 15 5 5 8 16 15 2 7 3 4 2 5 12 2 12 12 5 13 9 10 11 14 17 13 19 9 11 6 6 3 4 1 5 1 7 17 19 21 20 22 22 22
24 25 24 2 2 12 12 15 2 4 12 5 3 3 4 4 6 6 9 3 6 5 6 17 5 15 12 9 14 4 3 4 1 3 6 16 8 8 13 25 24 20 23 25 23
25 26 20 6 7 4 9 6 4 7 5 4 5 6 2 4 4 4 17 13 13 11 16 7 20 5 7 9 6 6 8 4 3 4 10 9 6 15 10 21 26 25 26 27 25
25 31 4 7 5 1 3 4 7 3 3 5 6 9 2 12 4 7 11 19 14 5 9 8 5 18 8 11 12 9 14 9 7 4 6 4 11 10 15 11 19 25 26 25 24
23 6 5 5 6 4 4 4 8 4 4 10 7 4 6 6 9 10 8 13 14 11 9 12 12 5 14 8 17 7 12 13 3 2 3 6 9 5 9 10 10 14 14 22 24
6 5 5 6 0 4 4 5 5 3 7 4 4 6 5 9 8 10 6 4 11 5 3 7 2 8 9 8 9 15 9 4 2 11 13 5 8 8 11 17 11 13 13 20 23
4 5 6 7 4 4 3 7 6 10 8 7 5 4 2 5 6 3 5 5 13 11 8 1 4 4 7 9 21 5 8 3 7 7 7 3 12 8 10 13 13 15 17 21 23
3 4 5 6 6 3 4 14 7 16 17 6 4 6 4 5 2 2 5 6 13 10 6 7 3 15 18 6 15 15 11 9 7 13 8 13 12 2 18 14 11 11 13 18 22
4 4 6 5 5 6 10 10 12 15 8 8 4 5 4 2 3 2 5 7 17 12 6 9 5 1 7 3 4 11 12 17 15 2 20 10 7 7 9 7 10 11 12 12 16
3 6 6 5 3 3 6 5 11 11 14 7 3 6 5 4 1 5 7 4 13 10 10 3 3 4 8 5 2 8 9 17 17 12 16 18 5 3 6 11 11 9 10 12 14
0 3 1 5 4 5 5 5 10 7 10 8 4 7 3 1 2 0 5 10 7 7 5 5 3 4 7 15 16 15 14 26 21 22 17 14 14 13 10 11 11 10 7 5 8
1 2 1 4 6 4 5 1 3 5 4 7 8 11 4 4 3 5 4 3 6 5 6 4 4 5 6 11 13 17 18 25 30 23 13 11 8 10 15 8 7 11 10 10 11
3 2 3 2 4 3 4 2 12 13 5 6 10 15 4 4 4 9 9 8 9 5 2 2 2 5 5 10 12 12 28 21 16 17 19 20 9 9 8 10 13 13 10 11 13
Wind_Direction
350 347 345 342 339 337 335 332 330 329 327 326 324 320 321 322 318 166 242 210 177 158 147 151 169 156 176 214 96 123 108 218 206 182 175 154 154 164 123 138 174 177 143 154 154
346 344 342 339 336 333 331 328 325 324 323 321 322 318 321 326 296 242 240 189 158 159 152 158 175 162 207 180 189 158 194 237 192 150 166 178 170 168 132 159 150 103 120 148 152
344 341 339 337 335 331 327 324 321 319 318 318 319 317 319 326 307 250 35 201 170 167 158 168 167 174 210 145 191 199 225 259 200 184 164 173 190 177 144 187 188 151 147 159 162
344 340 337 334 332 329 325 321 318 315 313 313 316 315 315 241 278 223 55 196 165 169 153 169 154 192 182 212 188 249 245 244 343 155 166 173 162 170 175 190 167 158 159 162 169
341 338 334 330 329 327 323 318 313 310 307 306 309 311 336 221 243 273 68 103 146 165 169 163 163 180 202 203 194 238 258 275 188 143 178 156 181 182 199 150 151 151 161 169 172
337 334 331 329 327 326 321 316 310 306 301 296 291 282 211 248 241 226 155 145 161 161 175 152 180 203 224 238 183 229 244 258 274 167 172 171 192 159 209 153 158 162 170 177 177
336 334 330 328 327 325 320 315 313 308 301 283 246 194 225 237 227 93 158 186 163 174 149 192 192 179 185 278 248 247 266 298 264 246 169 194 214 199 177 163 167 171 172 178 189
335 333 329 327 325 323 316 315 311 308 297 249 175 176 244 244 256 262 246 273 192 212 189 180 181 200 182 297 355 261 81 284 277 178 229 178 212 200 166 166 176 177 174 183 193
334 332 329 327 325 322 316 312 310 312 95 134 136 175 264 287 207 228 164 196 159 189 230 210 121 190 137 161 1 343 219 222 301 179 171 180 198 167 169 174 176 180 182 188 190
333 332 329 327 325 322 319 309 287 120 127 179 135 336 254 244 210 195 192 165 153 143 118 182 183 165 109 137 208 198 202 244 234 276 182 195 184 162 172 180 181 182 186 189 195
333 332 331 329 326 326 330 349 14 347 307 228 205 261 287 273 288 209 173 129 121 115 167 188 170 204 204 178 197 190 230 248 133 207 75 264 177 176 176 185 187 188 185 192 204
335 333 332 332 323 325 351 45 72 300 295 246 249 248 246 69 314 263 138 140 149 184 163 187 220 193 192 185 207 190 226 259 300 213 191 221 203 187 179 195 192 188 190 194 195
335 334 334 335 321 8 317 234 36 342 247 272 216 237 214 182 210 252 167 154 139 163 194 207 223 169 178 185 190 198 201 241 241 16 220 118 1 179 205 221 199 204 200 200 195
333 333 334 341 9 331 294 311 335 274 299 275 240 255 154 127 236 210 185 161 162 195 155 223 230 200 192 211 180 239 194 247 256 58 237 124 243 195 199 212 210 204 206 207 206
331 328 325 339 273 317 287 325 321 106 312 226 180 112 150 173 170 204 178 151 181 168 157 217 185 202 214 218 172 243 183 196 199 203 158 222 122 248 175 209 216 207 208 210 209
325 323 322 356 240 249 301 301 352 43 247 299 74 52 121 267 293 90 172 117 136 163 229 214 200 198 205 197 203 178 309 28 38 138 238 247 168 245 195 202 211 211 210 209 206
320 317 310 286 245 286 340 350 67 208 327 8 350 342 258 250 229 189 178 187 168 163 205 186 225 229 153 196 186 132 107 272 283 198 231 220 193 229 204 208 210 204 211 209 204
322 308 309 244 250 279 356 63 211 238 307 18 330 294 61 10 7 331 175 194 211 111 171 176 219 208 197 186 197 194 185 161 198 207 233 153 232 233 215 225 215 217 211 208 203
324 297 326 278 300 113 92 190 210 204 18 344 327 21 357 12 6 7 3 216 210 179 170 185 233 228 199 188 173 193 196 192 134 184 15 226 277 304 211 235 237 214 202 208 205
320 325 288 294 100 68 59 260 275 331 1 343 21 13 357 348 11 25 336 12 345 257 240 213 234 216 201 170 216 187 172 158 355 219 239 253 249 220 193 216 224 230 201 211 208
10 348 259 326 77 70 201 247 298 300 20 357 334 312 289 347 2 24 278 30 5 347 351 4 173 238 128 187 198 179 199 201 158 159 212 211 252 182 205 211 211 218 210 210 204
21 340 291 9 45 0 5 317 277 289 308 280 271 266 273 43 342 280 258 35 19 350 22 332 282 241 225 224 200 205 197 159 157 222 246 233 233 331 191 202 204 217 211 219 215
329 261 306 64 56 1 334 331 344 3 350 337 329 49 3 84 346 68 316 42 12 15 10 342 305 297 336 313 292 209 204 203 219 118 222 215 255 213 174 206 203 211 233 234 224
6 330 324 26 142 23 333 330 345 330 300 347 326 63 46 11 13 312 301 2 340 335 5 62 301 241 258 277 307 212 226 208 202 224 227 227 226 229 204 209 233 215 226 210 195
157 268 236 311 343 321 321 285 341 349 338 316 45 59 55 322 308 209 12 329 341 352 19 86 250 283 299 299 285 262 245 222 216 218 215 226 203 232 208 201 212 225 228 222 209
257 291 317 259 277 295 303 320 348 331 328 310 351 340 324 217 191 285 291 228 264 322 350 6 281 341 290 265 260 261 251 245 222 219 229 223 217 213 222 225 228 222 225 204 211
243 253 259 338 299 275 239 359 320 318 271 269 297 315 278 242 278 254 227 222 233 277 296 300 200 3 275 316 323 269 235 246 249 215 204 222 196 190 240 205 224 231 222 210 214